QPF
0.01 0.01 0.00 0.00 0.00 0.00 0.00 0.00 0.00 0.00 0.00 0.00 0.00 0.00 0.00 0.00 0.00 0.00 0.00 0.00 0.00 0.00 0.00 0.00 0.00 0.00 0.00 0.00 0.00 0.00 0.00 0.00 0.00 0.00 0.00 0.00 0.00 0.00 0.00 0.00 0.00 0.00 0.00 0.00 0.00 0.00 0.00
0.01 0.01 0.00 0.00 0.00 0.00 0.00 0.00 0.00 0.00 0.00 0.00 0.00 0.00 0.00 0.00 0.00 0.00 0.00 0.00 0.00 0.00 0.00 0.00 0.00 0.00 0.00 0.00 0.00 0.00 0.00 0.00 0.00 0.00 0.00 0.00 0.00 0.00 0.00 0.00 0.00 0.00 0.00 0.00 0.00 0.00 0.00
0.00 0.00 0.00 0.00 0.00 0.00 0.00 0.00 0.00 0.00 0.00 0.00 0.00 0.00 0.00 0.00 0.00 0.00 0.00 0.00 0.00 0.00 0.00 0.00 0.00 0.00 0.00 0.00 0.00 0.00 0.00 0.00 0.00 0.00 0.00 0.00 0.00 0.00 0.00 0.00 0.00 0.00 0.00 0.00 0.00 0.00 0.00
0.00 0.00 0.00 0.00 0.00 0.00 0.00 0.00 0.00 0.00 0.00 0.00 0.00 0.00 0.00 0.00 0.00 0.00 0.00 0.00 0.00 0.00 0.00 0.00 0.00 0.00 0.00 0.00 0.00 0.00 0.00 0.00 0.00 0.00 0.00 0.00 0.00 0.00 0.00 0.00 0.00 0.00 0.00 0.00 0.00 0.00 0.00
0.00 0.00 0.00 0.00 0.00 0.00 0.00 0.00 0.00 0.00 0.00 0.00 0.00 0.00 0.00 0.00 0.00 0.00 0.00 0.00 0.00 0.00 0.00 0.00 0.00 0.00 0.00 0.00 0.00 0.00 0.00 0.00 0.00 0.00 0.00 0.00 0.00 0.00 0.00 0.00 0.00 0.00 0.00 0.00 0.00 0.00 0.00
0.00 0.00 0.00 0.00 0.00 0.00 0.00 0.00 0.00 0.00 0.00 0.00 0.00 0.00 0.00 0.00 0.00 0.00 0.00 0.00 0.00 0.00 0.00 0.00 0.00 0.00 0.00 0.00 0.00 0.00 0.00 0.00 0.00 0.00 0.00 0.00 0.00 0.00 0.00 0.00 0.00 0.00 0.00 0.00 0.00 0.00 0.00
0.00 0.00 0.00 0.00 0.00 0.00 0.00 0.00 0.00 0.00 0.00 0.00 0.00 0.00 0.00 0.00 0.00 0.01 0.00 0.00 0.00 0.00 0.00 0.00 0.00 0.00 0.00 0.00 0.00 0.00 0.00 0.00 0.00 0.00 0.00 0.00 0.00 0.00 0.00 0.00 0.00 0.00 0.00 0.00 0.00 0.00 0.00
0.00 0.00 0.00 0.00 0.00 0.01 0.00 0.00 0.00 0.00 0.00 0.00 0.00 0.00 0.00 0.00 0.00 0.00 0.00 0.00 0.00 0.00 0.00 0.00 0.00 0.00 0.00 0.00 0.00 0.00 0.00 0.00 0.00 0.00 0.00 0.00 0.00 0.00 0.00 0.00 0.00 0.00 0.00 0.00 0.00 0.00 0.00
0.00 0.00 0.00 0.01 0.01 0.01 0.00 0.00 0.00 0.00 0.00 0.00 0.00 0.00 0.00 0.00 0.00 0.00 0.00 0.00 0.00 0.00 0.00 0.00 0.00 0.00 0.00 0.00 0.00 0.00 0.00 0.00 0.00 0.00 0.00 0.00 0.00 0.00 0.00 0.00 0.00 0.00 0.00 0.00 0.00 0.00 0.00
0.00 0.00 0.00 0.01 0.01 0.01 0.00 0.00 0.00 0.00 0.00 0.00 0.00 0.01 0.00 0.00 0.00 0.00 0.00 0.00 0.00 0.00 0.00 0.00 0.00 0.00 0.00 0.00 0.00 0.00 0.00 0.00 0.00 0.00 0.00 0.00 0.00 0.00 0.00 0.00 0.00 0.00 0.00 0.00 0.00 0.00 0.00
0.00 0.00 0.00 0.01 0.01 0.01 0.00 0.00 0.00 0.00 0.00 0.00 0.01 0.01 0.00 0.00 0.00 0.00 0.00 0.00 0.00 0.00 0.00 0.00 0.00 0.00 0.00 0.00 0.00 0.00 0.00 0.00 0.00 0.00 0.00 0.00 0.00 0.00 0.00 0.00 0.00 0.00 0.00 0.00 0.00 0.00 0.00
0.00 0.00 0.00 0.01 0.01 0.00 0.00 0.00 0.00 0.00 0.00 0.00 0.00 0.00 0.00 0.00 0.00 0.00 0.00 0.00 0.00 0.00 0.00 0.00 0.00 0.00 0.00 0.00 0.00 0.00 0.00 0.00 0.00 0.00 0.00 0.00 0.00 0.00 0.00 0.00 0.00 0.00 0.00 0.00 0.00 0.00 0.00
0.00 0.00 0.00 0.00 0.00 0.00 0.00 0.00 0.00 0.00 0.00 0.00 0.00 0.00 0.00 0.00 0.00 0.00 0.00 0.00 0.00 0.00 0.00 0.00 0.00 0.00 0.00 0.00 0.00 0.00 0.00 0.00 0.00 0.00 0.00 0.00 0.00 0.00 0.00 0.00 0.00 0.00 0.00 0.00 0.00 0.00 0.00
0.00 0.00 0.00 0.00 0.00 0.00 0.00 0.00 0.00 0.00 0.00 0.00 0.00 0.00 0.00 0.00 0.00 0.00 0.00 0.00 0.00 0.00 0.00 0.00 0.00 0.00 0.00 0.00 0.00 0.00 0.00 0.00 0.00 0.00 0.00 0.00 0.00 0.00 0.00 0.00 0.00 0.00 0.00 0.00 0.00 0.00 0.00
0.00 0.00 0.00 0.00 0.00 0.00 0.00 0.00 0.00 0.00 0.00 0.00 0.00 0.00 0.00 0.00 0.00 0.00 0.00 0.00 0.00 0.00 0.00 0.00 0.00 0.00 0.00 0.00 0.00 0.00 0.00 0.00 0.00 0.00 0.00 0.00 0.00 0.00 0.00 0.00 0.00 0.00 0.00 0.00 0.00 0.00 0.00
0.00 0.00 0.00 0.00 0.00 0.00 0.00 0.00 0.00 0.00 0.00 0.00 0.00 0.00 0.00 0.00 0.00 0.00 0.00 0.00 0.00 0.00 0.00 0.00 0.00 0.00 0.00 0.00 0.00 0.00 0.00 0.00 0.00 0.00 0.00 0.00 0.00 0.00 0.00 0.00 0.00 0.00 0.00 0.00 0.00 0.00 0.00
0.00 0.00 0.00 0.00 0.00 0.00 0.00 0.00 0.00 0.00 0.00 0.00 0.00 0.00 0.00 0.00 0.00 0.00 0.00 0.00 0.00 0.00 0.00 0.00 0.00 0.00 0.00 0.00 0.00 0.00 0.00 0.00 0.00 0.00 0.00 0.00 0.00 0.00 0.00 0.00 0.00 0.00 0.00 0.00 0.00 0.00 0.00
0.00 0.00 0.00 0.00 0.00 0.00 0.00 0.00 0.00 0.00 0.00 0.00 0.00 0.00 0.00 0.00 0.00 0.00 0.00 0.00 0.00 0.00 0.00 0.00 0.00 0.00 0.00 0.00 0.00 0.00 0.00 0.00 0.00 0.00 0.00 0.00 0.00 0.00 0.00 0.00 0.00 0.00 0.00 0.00 0.00 0.00 0.00
0.00 0.00 0.00 0.00 0.00 0.00 0.00 0.00 0.00 0.00 0.00 0.00 0.00 0.00 0.00 0.00 0.00 0.00 0.00 0.00 0.00 0.00 0.00 0.00 0.00 0.00 0.00 0.00 0.00 0.00 0.00 0.00 0.00 0.00 0.00 0.00 0.00 0.00 0.00 0.00 0.00 0.00 0.00 0.00 0.00 0.00 0.00
0.00 0.00 0.00 0.00 0.00 0.00 0.00 0.00 0.00 0.00 0.00 0.00 0.00 0.00 0.00 0.00 0.00 0.00 0.00 0.00 0.00 0.00 0.00 0.00 0.00 0.00 0.00 0.00 0.00 0.00 0.00 0.00 0.00 0.00 0.00 0.00 0.00 0.00 0.00 0.00 0.00 0.00 0.00 0.00 0.00 0.00 0.00
0.00 0.00 0.00 0.00 0.00 0.00 0.00 0.00 0.00 0.00 0.00 0.00 0.00 0.00 0.00 0.00 0.00 0.00 0.00 0.00 0.00 0.00 0.00 0.00 0.00 0.00 0.00 0.00 0.00 0.00 0.00 0.00 0.00 0.00 0.00 0.00 0.00 0.00 0.00 0.00 0.00 0.00 0.00 0.00 0.00 0.00 0.00
0.00 0.00 0.00 0.00 0.00 0.00 0.00 0.00 0.00 0.00 0.00 0.00 0.00 0.00 0.00 0.00 0.00 0.00 0.00 0.00 0.00 0.00 0.00 0.00 0.00 0.00 0.00 0.00 0.00 0.00 0.00 0.00 0.00 0.00 0.00 0.00 0.00 0.00 0.00 0.00 0.00 0.00 0.00 0.00 0.00 0.00 0.00
0.00 0.00 0.00 0.00 0.00 0.00 0.00 0.00 0.00 0.00 0.00 0.00 0.00 0.00 0.00 0.00 0.00 0.00 0.00 0.00 0.00 0.00 0.00 0.00 0.00 0.00 0.00 0.00 0.00 0.00 0.00 0.00 0.00 0.00 0.00 0.00 0.00 0.00 0.00 0.00 0.00 0.00 0.00 0.00 0.00 0.00 0.00
0.00 0.00 0.00 0.00 0.00 0.00 0.00 0.00 0.00 0.00 0.00 0.00 0.00 0.00 0.00 0.00 0.00 0.00 0.00 0.00 0.00 0.00 0.00 0.00 0.00 0.00 0.00 0.00 0.00 0.00 0.00 0.00 0.00 0.00 0.00 0.00 0.00 0.00 0.00 0.00 0.00 0.00 0.00 0.00 0.00 0.00 0.00
0.00 0.00 0.00 0.00 0.00 0.00 0.00 0.00 0.00 0.00 0.00 0.00 0.00 0.00 0.00 0.00 0.00 0.00 0.00 0.00 0.00 0.00 0.00 0.00 0.00 0.00 0.00 0.00 0.00 0.00 0.00 0.00 0.00 0.00 0.00 0.00 0.00 0.00 0.00 0.00 0.00 0.00 0.00 0.00 0.00 0.00 0.00
0.00 0.00 0.00 0.00 0.00 0.00 0.00 0.00 0.00 0.00 0.00 0.00 0.00 0.00 0.00 0.00 0.00 0.00 0.00 0.00 0.00 0.00 0.00 0.00 0.00 0.00 0.00 0.00 0.00 0.00 0.00 0.00 0.00 0.00 0.00 0.00 0.00 0.00 0.00 0.00 0.00 0.00 0.00 0.00 0.00 0.00 0.00
0.00 0.00 0.00 0.00 0.00 0.00 0.00 0.00 0.00 0.00 0.00 0.00 0.00 0.00 0.00 0.00 0.00 0.00 0.00 0.00 0.00 0.00 0.00 0.00 0.00 0.00 0.00 0.00 0.00 0.00 0.00 0.00 0.00 0.00 0.00 0.00 0.00 0.00 0.00 0.00 0.00 0.00 0.00 0.00 0.00 0.00 0.00
0.00 0.00 0.00 0.00 0.00 0.00 0.00 0.00 0.00 0.00 0.00 0.00 0.00 0.00 0.00 0.00 0.00 0.00 0.00 0.00 0.00 0.00 0.00 0.00 0.00 0.00 0.00 0.00 0.00 0.00 0.00 0.00 0.00 0.00 0.00 0.00 0.00 0.00 0.00 0.00 0.00 0.00 0.00 0.00 0.00 0.00 0.00
0.00 0.00 0.00 0.00 0.00 0.00 0.00 0.00 0.00 0.00 0.00 0.00 0.00 0.00 0.00 0.00 0.00 0.00 0.00 0.00 0.00 0.00 0.00 0.00 0.00 0.00 0.00 0.00 0.00 0.00 0.00 0.00 0.00 0.00 0.00 0.00 0.00 0.00 0.00 0.00 0.00 0.00 0.00 0.00 0.00 0.00 0.00
MSLP
1020.71 1020.63 1020.46 1020.25 1020.05 1019.83 1019.58 1019.28 1018.99 1018.65 1018.23 1017.89 1017.54 1017.19 1016.83 1016.49 1016.13 1015.64 1015.34 1015.12 1014.83 1014.57 1014.32 1014.19 1013.98 1013.77 1013.81 1012.55 1010.05 1009.14 1009.38 1009.62 1009.96 1010.14 1010.23 1010.47 1010.80 1010.91 1010.76 1010.96 1010.94 1010.75 1010.15 1009.79 1009.49 1009.63 1009.76
1020.64 1020.55 1020.41 1020.23 1020.04 1019.75 1019.45 1019.16 1018.90 1018.59 1018.29 1017.86 1017.47 1017.05 1016.59 1016.25 1015.87 1015.42 1015.02 1014.74 1014.52 1014.22 1014.08 1013.89 1013.83 1013.71 1013.18 1011.19 1009.19 1009.32 1009.71 1010.08 1010.04 1010.14 1010.39 1010.58 1010.64 1010.80 1010.80 1010.77 1010.52 1010.14 1009.85 1009.33 1009.17 1009.18 1009.43
1020.80 1020.71 1020.49 1020.30 1020.03 1019.81 1019.49 1019.14 1018.78 1018.39 1018.02 1017.66 1017.25 1016.87 1016.41 1015.97 1015.55 1015.11 1014.78 1014.33 1014.00 1013.73 1013.57 1013.54 1013.49 1013.43 1012.37 1010.33 1009.48 1009.56 1009.97 1010.33 1010.50 1010.38 1010.36 1010.74 1010.66 1010.66 1010.67 1010.44 1010.30 1009.97 1009.42 1008.82 1009.22 1009.16 1009.51
1020.88 1020.65 1020.45 1020.22 1019.95 1019.65 1019.27 1018.85 1018.46 1018.13 1017.70 1017.28 1016.93 1016.51 1016.10 1015.63 1015.20 1014.83 1014.41 1013.95 1013.24 1012.81 1012.92 1013.18 1013.18 1013.08 1010.93 1009.71 1009.64 1009.82 1010.05 1010.53 1010.90 1010.77 1010.70 1010.91 1010.70 1010.67 1010.64 1010.55 1010.17 1009.67 1009.37 1008.54 1009.21 1009.24 1009.68
1021.39 1021.06 1020.67 1020.25 1019.89 1019.46 1019.07 1018.71 1018.25 1017.82 1017.34 1016.89 1016.48 1016.14 1015.81 1015.37 1014.96 1014.53 1014.15 1013.56 1012.62 1011.98 1012.75 1012.77 1013.00 1012.52 1010.21 1009.84 1009.85 1009.87 1009.77 1010.03 1010.84 1011.12 1011.09 1010.99 1010.86 1010.75 1010.77 1010.25 1009.90 1009.60 1008.75 1008.65 1008.87 1009.26 1009.44
1021.52 1021.04 1020.65 1020.22 1019.87 1019.46 1018.98 1018.58 1018.06 1017.55 1017.07 1016.63 1016.07 1015.77 1015.36 1014.95 1014.58 1014.07 1013.77 1013.35 1012.83 1012.70 1013.01 1012.93 1012.40 1011.95 1010.08 1008.98 1008.93 1009.62 1009.95 1009.91 1010.38 1011.05 1011.23 1011.20 1011.05 1010.74 1010.65 1010.04 1009.11 1009.12 1008.87 1008.85 1008.73 1009.06 1009.29
1021.58 1021.19 1020.75 1020.32 1019.85 1019.39 1018.85 1018.40 1017.89 1017.37 1016.86 1016.26 1015.70 1015.37 1014.99 1014.63 1014.23 1013.83 1013.43 1012.81 1013.00 1012.80 1012.43 1011.14 1010.49 1009.79 1008.97 1008.67 1008.82 1009.41 1009.68 1009.76 1010.07 1010.55 1010.61 1010.99 1010.53 1009.77 1009.92 1010.08 1009.89 1009.51 1009.12 1008.82 1008.91 1009.01 1009.01
1021.58 1021.20 1020.85 1020.45 1019.88 1019.27 1018.77 1018.23 1017.71 1017.12 1016.52 1015.83 1015.40 1014.95 1014.44 1014.18 1013.99 1013.59 1013.47 1012.09 1011.75 1011.87 1010.95 1009.93 1009.80 1009.53 1008.88 1008.49 1008.31 1009.19 1009.45 1009.22 1009.57 1009.73 1010.48 1010.93 1009.88 1010.22 1010.30 1010.22 1010.08 1009.80 1009.40 1009.15 1009.06 1009.13 1009.15
1021.68 1021.31 1020.87 1020.39 1019.85 1019.26 1018.71 1018.14 1017.51 1016.87 1016.13 1015.45 1015.02 1014.52 1014.01 1013.74 1013.54 1013.49 1012.73 1011.55 1011.41 1011.42 1010.79 1009.39 1009.10 1008.48 1007.98 1008.00 1007.59 1008.31 1008.67 1008.85 1009.02 1009.38 1009.81 1009.77 1009.39 1009.93 1009.99 1009.99 1009.91 1009.72 1009.37 1009.34 1009.13 1009.11 1009.18
1021.60 1021.07 1020.56 1020.08 1019.52 1018.88 1018.31 1017.70 1017.13 1016.44 1015.57 1015.05 1014.53 1014.11 1013.82 1013.45 1013.42 1012.83 1011.90 1011.37 1011.32 1011.32 1010.29 1009.15 1008.49 1007.36 1007.56 1007.35 1007.30 1007.47 1007.89 1007.91 1008.76 1008.89 1009.41 1009.51 1009.29 1009.35 1009.43 1009.36 1009.45 1009.29 1009.57 1009.42 1009.34 1009.10 1008.74
1021.42 1020.85 1020.33 1019.80 1019.13 1018.53 1017.88 1017.21 1016.62 1015.95 1015.31 1014.67 1014.18 1013.85 1013.59 1013.37 1013.07 1012.37 1011.86 1011.37 1011.26 1011.12 1009.85 1008.72 1007.70 1007.15 1007.21 1007.15 1007.11 1007.61 1007.77 1007.67 1008.09 1008.59 1008.98 1008.95 1008.99 1008.95 1008.89 1008.89 1009.28 1009.12 1009.46 1009.41 1009.39 1009.23 1009.24
1021.31 1020.78 1020.24 1019.70 1019.15 1018.35 1017.73 1017.02 1016.35 1015.61 1014.96 1014.36 1013.87 1013.54 1013.31 1013.15 1013.09 1011.76 1011.53 1011.27 1011.27 1010.87 1009.46 1008.45 1007.67 1007.18 1007.12 1007.22 1007.33 1007.57 1007.71 1007.93 1008.64 1008.77 1008.90 1008.73 1009.11 1008.89 1008.62 1008.95 1009.02 1009.17 1009.54 1009.80 1009.88 1009.45 1008.91
1021.13 1020.69 1020.15 1019.49 1018.83 1018.22 1017.48 1016.76 1015.93 1015.26 1014.68 1013.96 1013.41 1013.05 1012.80 1012.60 1011.94 1011.59 1011.31 1011.14 1011.03 1010.33 1009.99 1009.50 1008.64 1007.95 1007.84 1008.25 1008.29 1008.19 1008.74 1009.16 1009.41 1009.43 1009.23 1009.13 1009.07 1008.99 1008.84 1008.84 1009.36 1009.15 1009.11 1009.24 1009.39 1009.15 1008.40
1021.20 1020.63 1020.05 1019.46 1018.75 1018.09 1017.26 1016.54 1015.69 1014.86 1014.19 1013.59 1012.88 1012.75 1012.78 1012.17 1011.74 1011.75 1011.14 1010.97 1010.84 1011.21 1010.63 1010.24 1009.76 1008.97 1009.07 1009.59 1009.94 1009.91 1010.27 1010.74 1011.03 1010.63 1010.26 1009.57 1009.91 1009.66 1009.51 1008.99 1008.75 1009.19 1008.89 1008.25 1008.11 1008.45 1008.45
1021.11 1020.65 1020.09 1019.41 1018.70 1018.11 1017.34 1016.41 1015.49 1014.67 1013.81 1013.05 1012.49 1012.43 1012.12 1011.60 1011.69 1011.71 1011.05 1011.19 1012.45 1012.43 1012.00 1011.19 1010.43 1010.07 1010.49 1010.55 1010.53 1011.06 1011.92 1012.48 1012.47 1012.14 1011.31 1010.72 1010.72 1010.76 1010.50 1010.13 1010.05 1009.95 1009.59 1009.16 1008.87 1009.61 1008.94
1020.96 1020.52 1019.90 1019.17 1018.47 1017.73 1017.07 1016.39 1015.49 1014.50 1013.61 1012.93 1012.53 1012.09 1011.82 1011.56 1011.51 1011.27 1011.35 1012.61 1013.15 1013.28 1012.71 1012.04 1011.67 1011.75 1011.52 1011.79 1011.63 1012.14 1013.13 1013.89 1013.47 1013.10 1012.69 1011.87 1011.53 1011.81 1011.51 1011.16 1010.96 1010.42 1010.69 1010.08 1009.45 1009.15 1008.97
1021.05 1020.57 1019.80 1019.15 1018.38 1017.59 1016.96 1016.23 1015.32 1014.30 1013.41 1012.81 1012.44 1011.88 1011.45 1011.25 1011.29 1011.65 1012.92 1013.82 1013.79 1013.86 1013.44 1013.01 1013.16 1013.05 1013.33 1013.21 1013.37 1013.87 1014.71 1014.69 1014.45 1013.74 1013.27 1012.81 1012.07 1012.73 1012.35 1013.00 1012.70 1011.75 1011.36 1010.97 1010.16 1010.02 1009.24
1020.97 1020.42 1019.87 1019.23 1018.50 1017.60 1016.69 1016.05 1015.29 1014.33 1013.25 1012.65 1012.65 1012.11 1011.53 1011.01 1012.05 1013.90 1014.46 1014.90 1015.09 1014.51 1014.34 1014.09 1014.27 1014.41 1014.61 1014.70 1014.86 1014.95 1015.33 1015.56 1015.28 1014.57 1014.17 1014.17 1013.54 1013.57 1014.03 1014.37 1014.32 1013.45 1013.03 1012.30 1010.79 1011.13 1011.18
1021.07 1020.62 1020.06 1019.37 1018.73 1017.88 1016.83 1016.07 1015.42 1014.66 1013.80 1013.39 1013.57 1013.31 1012.20 1011.51 1013.41 1014.66 1015.37 1015.50 1015.78 1015.30 1015.21 1015.13 1015.38 1015.47 1015.67 1015.82 1015.93 1016.04 1016.12 1016.30 1015.89 1015.23 1015.14 1014.79 1014.73 1014.60 1014.65 1014.74 1014.68 1014.25 1014.09 1013.69 1012.93 1012.12 1012.11
1021.04 1020.62 1020.12 1019.57 1018.99 1018.14 1017.35 1016.34 1015.59 1014.83 1014.20 1013.91 1014.19 1014.23 1014.08 1014.45 1015.58 1015.39 1015.73 1016.09 1016.10 1016.32 1016.31 1016.32 1016.41 1016.18 1016.11 1016.45 1016.45 1016.79 1016.85 1016.77 1016.60 1016.20 1015.99 1015.55 1015.81 1015.31 1014.91 1015.17 1015.29 1015.09 1014.94 1014.47 1013.59 1012.83 1013.25
1021.18 1020.80 1020.24 1019.56 1019.05 1018.36 1017.54 1016.52 1015.64 1014.93 1014.41 1014.47 1015.21 1016.19 1016.51 1016.17 1016.22 1016.46 1016.39 1016.80 1016.65 1016.71 1016.85 1016.93 1017.17 1017.24 1017.00 1017.13 1017.28 1017.47 1017.49 1017.18 1016.83 1016.89 1016.45 1016.27 1016.33 1016.74 1016.71 1016.53 1016.20 1015.96 1015.82 1015.57 1014.92 1014.85 1014.42
1021.22 1020.90 1020.44 1019.73 1019.11 1018.61 1017.97 1017.01 1016.05 1015.03 1014.50 1014.87 1016.01 1016.52 1017.12 1017.19 1017.17 1016.87 1017.03 1017.39 1017.19 1017.28 1017.25 1017.45 1017.73 1018.09 1017.77 1018.00 1018.28 1018.21 1018.18 1018.09 1018.02 1017.59 1017.48 1017.66 1017.65 1017.72 1017.81 1017.70 1017.30 1016.88 1016.93 1016.77 1016.56 1016.28 1016.38
1021.25 1020.94 1020.70 1020.14 1019.47 1018.93 1018.54 1017.71 1016.69 1015.56 1014.81 1015.85 1017.13 1017.07 1016.56 1017.46 1017.27 1017.11 1017.53 1017.62 1017.67 1017.71 1018.10 1018.14 1018.22 1018.35 1018.59 1019.09 1019.08 1019.16 1019.24 1019.28 1019.13 1018.84 1018.50 1018.48 1018.50 1018.54 1018.54 1018.80 1018.42 1018.13 1018.09 1017.96 1017.85 1018.13 1018.05
1021.20 1020.93 1020.68 1019.97 1019.58 1019.05 1018.55 1018.16 1017.54 1016.74 1016.35 1016.65 1017.37 1017.20 1016.82 1017.52 1017.23 1017.42 1017.51 1017.63 1017.79 1017.98 1018.15 1018.50 1018.57 1018.73 1019.58 1019.72 1019.63 1019.78 1019.76 1019.83 1019.87 1020.01 1019.80 1019.29 1019.43 1019.65 1019.36 1019.57 1019.29 1019.13 1019.45 1019.49 1019.24 1020.00 1020.17
1020.94 1020.78 1020.40 1020.30 1019.59 1019.35 1018.87 1018.63 1018.09 1017.60 1017.08 1017.09 1017.92 1017.56 1017.15 1017.47 1017.61 1017.67 1017.79 1017.98 1018.26 1018.37 1018.44 1018.59 1019.05 1019.51 1019.78 1019.67 1019.70 1020.11 1020.25 1020.18 1020.41 1020.72 1020.48 1020.24 1019.95 1020.17 1019.96 1019.67 1019.75 1019.81 1020.03 1020.17 1020.13 1021.36 1022.08
1020.95 1020.58 1020.43 1020.20 1019.77 1019.36 1019.13 1018.81 1018.50 1018.08 1017.59 1017.37 1018.09 1018.15 1017.35 1017.28 1017.49 1017.49 1017.80 1018.13 1018.14 1018.37 1018.69 1019.04 1019.67 1019.97 1019.95 1019.97 1020.25 1020.52 1020.89 1021.31 1021.09 1021.01 1021.27 1021.03 1020.81 1020.43 1020.47 1019.65 1019.23 1019.80 1020.70 1021.10 1021.17 1021.45 1022.83
1020.61 1020.37 1020.29 1020.25 1019.94 1019.69 1019.37 1019.16 1018.73 1018.37 1017.98 1017.55 1017.98 1018.37 1017.75 1017.26 1017.32 1017.36 1017.34 1017.75 1018.27 1018.45 1018.55 1019.08 1019.46 1019.82 1020.19 1020.33 1020.99 1021.62 1022.05 1022.39 1022.10 1021.70 1021.65 1021.50 1021.38 1021.11 1020.69 1020.16 1019.86 1020.38 1021.13 1021.55 1021.80 1022.77 1023.19
1020.39 1020.28 1020.09 1020.05 1020.15 1019.91 1019.50 1019.30 1018.96 1018.60 1018.24 1017.73 1018.07 1018.24 1017.95 1017.59 1017.37 1017.21 1017.13 1017.39 1017.91 1017.99 1018.10 1019.09 1019.64 1020.07 1020.36 1020.83 1021.52 1022.15 1022.41 1022.75 1022.78 1022.67 1022.15 1021.72 1021.76 1021.84 1021.74 1021.10 1020.53 1020.73 1021.43 1021.59 1022.05 1022.76 1023.17
1020.10 1019.90 1019.69 1019.53 1019.55 1019.91 1019.69 1019.48 1019.16 1018.78 1018.44 1018.13 1018.02 1018.37 1018.50 1018.03 1017.67 1017.53 1016.96 1016.83 1016.76 1016.91 1017.61 1018.83 1019.15 1019.65 1020.25 1021.02 1022.02 1022.57 1022.61 1022.89 1022.77 1022.33 1022.52 1022.39 1022.09 1021.81 1021.53 1020.66 1020.47 1020.78 1020.92 1021.49 1022.01 1022.38 1022.88
Thickness
5685 5683 5682 5681 5680 5680 5680 5679 5679 5679 5680 5681 5683 5684 5687 5689 5692 5696 5700 5703 5706 5709 5712 5714 5717 5720 5722 5732 5748 5767 5768 5769 5769 5769 5764 5761 5754 5754 5752 5756 5759 5757 5770 5781 5788 5788 5788
5683 5680 5677 5675 5674 5673 5673 5672 5671 5671 5672 5673 5675 5677 5680 5683 5685 5689 5693 5697 5700 5703 5707 5709 5711 5714 5719 5730 5757 5759 5760 5760 5762 5762 5758 5759 5754 5758 5754 5753 5755 5768 5773 5780 5787 5787 5788
5673 5671 5669 5667 5666 5664 5663 5663 5663 5664 5665 5666 5667 5669 5672 5675 5678 5682 5685 5690 5695 5698 5702 5704 5706 5709 5716 5733 5748 5750 5751 5750 5754 5756 5750 5755 5759 5756 5756 5752 5764 5766 5764 5778 5776 5783 5778
5667 5665 5663 5662 5660 5659 5658 5658 5658 5658 5659 5660 5661 5662 5664 5668 5671 5675 5679 5684 5691 5696 5697 5697 5699 5702 5717 5737 5740 5742 5743 5740 5744 5749 5749 5753 5759 5753 5750 5760 5757 5756 5762 5759 5768 5777 5777
5659 5657 5655 5654 5653 5653 5652 5652 5652 5652 5653 5654 5656 5657 5658 5660 5664 5668 5672 5678 5685 5692 5688 5690 5691 5695 5713 5728 5725 5734 5739 5734 5734 5736 5741 5748 5748 5743 5746 5742 5741 5748 5748 5755 5760 5773 5772
5653 5651 5649 5649 5647 5647 5647 5647 5647 5647 5648 5648 5651 5651 5653 5655 5657 5663 5665 5669 5674 5676 5675 5678 5685 5688 5705 5715 5726 5727 5732 5734 5727 5724 5725 5727 5730 5730 5732 5736 5727 5735 5743 5750 5753 5765 5767
5647 5646 5645 5644 5643 5642 5642 5641 5641 5641 5642 5643 5645 5646 5648 5649 5652 5655 5658 5664 5666 5667 5668 5681 5689 5692 5702 5714 5719 5715 5722 5723 5724 5719 5709 5718 5718 5724 5733 5735 5735 5738 5742 5745 5754 5765 5763
5643 5641 5639 5637 5636 5637 5636 5636 5635 5636 5637 5639 5640 5641 5643 5643 5643 5646 5646 5662 5662 5660 5663 5676 5678 5680 5693 5703 5700 5701 5715 5710 5711 5705 5708 5704 5712 5722 5727 5730 5727 5729 5731 5735 5748 5758 5758
5638 5636 5634 5632 5631 5631 5629 5628 5629 5631 5634 5636 5636 5636 5637 5637 5635 5636 5641 5651 5652 5652 5651 5666 5670 5675 5687 5694 5695 5694 5707 5705 5702 5699 5702 5702 5718 5721 5721 5722 5719 5725 5727 5728 5734 5749 5754
5635 5634 5633 5631 5630 5628 5627 5627 5627 5628 5632 5631 5631 5631 5630 5629 5631 5631 5639 5643 5643 5643 5638 5649 5657 5672 5680 5688 5684 5702 5706 5704 5696 5695 5699 5701 5717 5714 5717 5719 5725 5716 5732 5732 5731 5735 5731
5633 5632 5631 5630 5629 5626 5626 5627 5627 5626 5627 5628 5627 5625 5622 5622 5625 5631 5632 5634 5635 5635 5613 5644 5651 5674 5673 5674 5684 5682 5699 5699 5689 5692 5700 5698 5703 5707 5710 5720 5724 5720 5730 5729 5728 5728 5730
5630 5628 5627 5625 5622 5624 5624 5624 5623 5624 5624 5623 5622 5620 5619 5619 5615 5626 5626 5629 5627 5612 5604 5629 5644 5650 5658 5664 5669 5677 5683 5693 5690 5687 5695 5700 5709 5712 5716 5721 5725 5728 5719 5715 5715 5721 5716
5629 5625 5623 5622 5622 5621 5622 5622 5623 5622 5621 5621 5621 5620 5620 5616 5622 5620 5623 5624 5607 5600 5620 5614 5622 5640 5645 5640 5649 5660 5658 5658 5663 5664 5672 5686 5694 5705 5714 5708 5712 5717 5712 5694 5693 5698 5715
5625 5623 5621 5618 5620 5620 5621 5620 5621 5621 5621 5620 5622 5620 5617 5617 5617 5616 5620 5614 5594 5599 5605 5616 5616 5630 5625 5628 5629 5639 5641 5642 5650 5659 5661 5670 5664 5686 5699 5706 5709 5708 5715 5706 5684 5693 5720
5622 5619 5617 5617 5617 5617 5617 5618 5618 5618 5620 5622 5623 5621 5621 5621 5616 5615 5618 5599 5583 5587 5597 5603 5616 5620 5615 5623 5633 5631 5625 5626 5635 5642 5654 5658 5658 5677 5684 5693 5700 5695 5695 5719 5700 5691 5717
5622 5618 5617 5619 5619 5619 5618 5615 5614 5617 5621 5623 5624 5624 5622 5621 5618 5619 5610 5585 5588 5589 5595 5604 5603 5606 5611 5611 5623 5624 5616 5618 5622 5634 5640 5648 5650 5657 5668 5681 5689 5696 5695 5694 5699 5682 5693
5618 5615 5617 5618 5619 5620 5618 5615 5615 5619 5623 5625 5628 5625 5626 5625 5623 5612 5591 5583 5588 5591 5594 5597 5594 5599 5596 5605 5608 5605 5600 5613 5616 5626 5632 5638 5653 5645 5659 5647 5652 5678 5681 5684 5699 5695 5699
5617 5615 5615 5615 5617 5619 5620 5618 5617 5620 5627 5628 5626 5617 5627 5630 5609 5585 5582 5580 5578 5586 5590 5594 5593 5588 5591 5594 5596 5600 5598 5602 5610 5619 5618 5620 5634 5626 5631 5639 5645 5657 5656 5667 5694 5677 5677
5614 5612 5612 5612 5614 5616 5619 5619 5616 5618 5623 5625 5616 5609 5622 5627 5598 5586 5580 5579 5578 5583 5583 5586 5584 5587 5585 5584 5590 5592 5595 5599 5605 5613 5612 5619 5615 5618 5626 5635 5641 5643 5650 5653 5661 5672 5666
5612 5611 5610 5610 5610 5613 5614 5618 5617 5618 5620 5620 5613 5604 5604 5599 5580 5586 5580 5574 5575 5575 5574 5576 5575 5582 5585 5582 5586 5583 5588 5593 5596 5603 5605 5613 5605 5616 5631 5625 5629 5631 5638 5648 5660 5668 5659
5609 5608 5609 5610 5609 5611 5614 5618 5618 5619 5618 5618 5604 5588 5581 5583 5583 5577 5577 5572 5572 5569 5573 5573 5568 5567 5573 5575 5574 5573 5578 5586 5595 5592 5600 5606 5601 5597 5600 5607 5615 5620 5624 5633 5642 5645 5654
5607 5605 5606 5607 5609 5609 5610 5614 5616 5620 5619 5612 5605 5594 5579 5575 5572 5578 5572 5567 5568 5567 5569 5565 5562 5561 5568 5564 5565 5566 5569 5573 5573 5587 5587 5588 5586 5589 5588 5595 5603 5610 5612 5617 5623 5633 5638
5604 5602 5602 5602 5604 5606 5605 5609 5612 5619 5618 5607 5591 5588 5596 5570 5576 5578 5570 5568 5565 5566 5563 5562 5561 5561 5560 5556 5559 5561 5562 5562 5566 5572 5577 5579 5580 5581 5582 5579 5588 5596 5599 5604 5611 5613 5622
5601 5600 5599 5603 5603 5604 5606 5605 5606 5611 5609 5603 5594 5594 5596 5580 5581 5575 5573 5571 5567 5563 5560 5559 5559 5558 5551 5550 5553 5554 5556 5558 5561 5557 5563 5571 5567 5565 5573 5571 5572 5582 5582 5583 5593 5587 5595
5600 5599 5600 5598 5602 5601 5603 5601 5603 5603 5606 5601 5591 5595 5595 5582 5578 5576 5573 5569 5564 5560 5559 5558 5555 5551 5547 5549 5550 5546 5548 5552 5551 5548 5553 5558 5563 5556 5563 5568 5569 5571 5573 5576 5583 5574 5567
5596 5597 5597 5597 5598 5600 5599 5599 5600 5600 5602 5601 5591 5588 5594 5588 5583 5581 5574 5568 5568 5563 5559 5556 5549 5544 5545 5546 5544 5543 5543 5534 5542 5544 5542 5546 5549 5558 5553 5565 5571 5568 5560 5562 5566 5579 5555
5595 5594 5594 5592 5593 5594 5595 5595 5597 5597 5597 5599 5594 5587 5591 5590 5586 5582 5579 5573 5565 5561 5562 5555 5553 5551 5544 5541 5536 5533 5528 5522 5532 5536 5536 5538 5539 5544 5551 5555 5561 5555 5550 5551 5556 5561 5543
5590 5589 5590 5591 5589 5589 5592 5591 5593 5594 5593 5595 5592 5587 5589 5588 5587 5584 5582 5572 5565 5564 5564 5555 5553 5548 5545 5539 5532 5520 5523 5518 5512 5512 5526 5535 5533 5532 5528 5531 5543 5546 5540 5544 5541 5533 5535
5586 5587 5589 5592 5590 5587 5588 5588 5589 5591 5591 5592 5593 5584 5581 5584 5586 5581 5584 5582 5579 5576 5566 5551 5554 5548 5545 5533 5518 5517 5519 5516 5517 5535 5519 5521 5526 5528 5533 5541 5540 5539 5539 5534 5530 5529 5527